Terug naar catalogus

STARLINK-32430

ActiefCommunicatieVLEO
NORAD 62207·PAYLOAD·🇺🇸 United States

Gelanceerd Dec 4, 2024 vanaf Cape Canaveral Space Force Station

Loading…

Volgende Passages (komende 24 uur)

TLE

VersSource: CelesTrak SupGP

Epoch: Sep 14, 2026, 21:32 UTC

1 62207C 24229R   26257.89770833  .00016104  00000+0  58338-3 0  2571
2 62207  42.9999 278.8833 0001522 263.9600 191.6082 15.27565351    14

Volg STARLINK-32430 in realtime met AllMySat

Download on the App Store